カタログに戻る

COSMOS 1755

運用中軍事LEO
NORAD 16765·PAYLOAD·🇷🇺 Russia

打ち上げ Jun 6, 1986 から Plesetsk Cosmodrome

Loading…

次のパス (今後24時間)

TLE

最新Source: Space-Track

元期: Sep 14, 2026, 08:46 UTC

1 16765U 86042H   26257.36590986 -.00000029  00000-0 -83400-4 0  9995
2 16765  74.0185  44.9533 0028948 159.5232 224.5950 12.54345638844158

AllMySatでCOSMOS 1755をリアルタイム追跡

Download on the App Store